Total_Precipitation_Accumulation
0.16 0.14 0.11 0.09 0.12 0.23 0.46 0.80 0.97 0.23 0.19 1.35 2.10 1.50 0.59 0.30 0.05 0.01 0.04 0.07 0.23 0.13 0.02 0.07 0.21 0.26 0.17 0.08 0.06 0.11 0.09 0.16 0.17 0.06 0.01 0.02 0.01 0.00 0.02 0.05 0.03 0.00 0.00 0.00
0.20 0.22 0.18 0.16 0.17 0.38 0.82 1.13 0.61 0.42 0.55 1.19 1.15 0.59 0.44 0.27 0.06 0.01 0.05 0.17 0.16 0.32 0.12 0.07 0.09 0.14 0.11 0.05 0.13 0.25 0.23 0.54 0.72 0.34 0.19 0.20 0.06 0.01 0.00 0.00 0.01 0.01 0.01 0.00
0.18 0.22 0.24 0.24 0.29 0.39 0.89 1.37 1.09 1.00 1.65 0.67 0.31 0.38 0.39 0.41 0.13 0.07 0.04 0.11 0.10 0.15 0.39 0.28 0.15 0.07 0.07 0.06 0.11 0.18 0.39 0.78 0.57 0.41 0.20 0.11 0.05 0.01 0.01 0.01 0.03 0.01 0.00 0.00
0.25 0.24 0.24 0.30 0.43 0.63 1.41 1.93 1.19 0.62 1.21 1.10 0.42 0.22 0.28 0.22 0.22 0.11 0.12 0.12 0.11 0.18 0.25 0.36 0.50 0.31 0.04 0.05 0.10 0.19 0.46 0.99 0.61 0.37 0.16 0.12 0.12 0.16 0.08 0.05 0.04 0.01 0.00 0.00
0.36 0.34 0.35 0.41 0.48 0.78 1.47 2.02 1.17 0.65 0.30 0.17 0.38 0.32 0.28 0.19 0.16 0.16 0.19 0.23 0.10 0.09 0.24 0.27 0.30 0.46 0.44 0.12 0.06 0.27 0.46 0.69 0.47 0.40 0.21 0.26 0.30 0.17 0.20 0.19 0.06 0.00 0.00 0.00
0.45 0.51 0.57 0.47 0.56 0.98 1.36 0.93 0.41 0.64 0.65 0.27 0.51 0.42 0.19 0.11 0.08 0.10 0.11 0.16 0.12 0.10 0.09 0.13 0.18 0.23 0.54 0.80 0.47 0.37 0.53 0.85 0.79 0.63 0.22 0.37 0.54 0.30 0.13 0.13 0.11 0.03 0.00 0.00
0.34 0.53 0.57 0.58 0.83 0.94 0.94 0.60 0.49 0.93 0.92 0.32 0.22 0.16 0.11 0.06 0.06 0.10 0.05 0.06 0.15 0.14 0.05 0.11 0.28 0.39 0.48 0.55 0.79 0.82 0.76 0.76 1.01 0.86 0.46 0.94 0.37 0.08 0.10 0.16 0.11 0.04 0.00 0.00
0.32 0.78 0.71 0.66 1.02 1.05 0.82 0.54 0.78 1.03 0.90 0.43 0.13 0.11 0.16 0.11 0.09 0.13 0.10 0.05 0.10 0.09 0.15 0.61 1.01 1.07 1.08 0.90 0.55 0.51 0.83 0.81 1.11 1.07 0.63 0.41 0.15 0.07 0.00 0.04 0.09 0.03 0.03 0.00
0.12 0.41 0.93 0.72 0.86 0.66 0.58 0.53 0.61 0.95 0.85 0.55 0.18 0.13 0.25 0.31 0.35 0.39 0.32 0.15 0.06 0.37 1.21 1.56 1.43 0.94 0.84 0.87 0.73 0.51 0.48 0.80 0.87 0.91 0.78 0.52 0.13 0.01 0.00 0.01 0.08 0.01 0.00 0.00
0.12 0.09 0.62 0.72 0.62 0.53 0.35 0.24 0.28 0.71 1.01 0.43 0.60 0.44 0.33 0.47 0.40 0.57 0.50 0.43 0.60 0.96 1.81 1.67 0.96 0.68 0.31 0.40 0.56 0.69 0.81 0.97 1.36 1.02 0.60 0.32 0.07 0.01 0.00 0.08 0.15 0.01 0.00 0.00
0.31 0.24 0.17 0.31 0.43 0.53 0.53 0.48 0.31 0.64 1.00 0.53 0.45 0.57 0.31 0.51 0.65 0.80 0.65 0.61 0.97 1.26 1.45 1.32 1.06 0.72 0.44 0.33 0.21 0.24 0.52 0.65 0.78 1.02 1.04 0.59 0.05 0.00 0.01 0.03 0.01 0.00 0.00 0.00
0.34 0.21 0.20 0.21 0.30 0.40 0.59 0.69 0.57 0.63 1.24 0.89 0.34 0.36 0.39 0.19 0.43 0.52 0.53 0.42 0.33 0.43 0.66 0.76 0.64 0.62 0.49 0.35 0.27 0.12 0.19 0.42 0.43 0.38 0.40 0.23 0.09 0.07 0.02 0.00 0.00 0.00 0.00 0.00
0.45 0.32 0.13 0.19 0.25 0.34 0.52 0.53 0.60 0.73 0.87 0.44 0.40 0.46 0.39 0.22 0.26 0.38 0.69 0.39 0.23 0.23 0.24 0.41 0.42 0.42 0.39 0.46 0.31 0.10 0.09 0.15 0.34 0.37 0.20 0.10 0.08 0.08 0.10 0.07 0.02 0.00 0.00 0.00
0.16 0.48 0.37 0.32 0.35 0.49 0.47 0.44 0.45 0.56 0.45 0.31 0.38 0.47 0.52 0.55 0.37 0.39 0.55 0.33 0.17 0.18 0.30 0.48 0.63 0.47 0.34 0.37 0.24 0.18 0.09 0.12 0.23 0.29 0.17 0.11 0.09 0.03 0.01 0.03 0.07 0.05 0.02 0.00
0.04 0.31 0.67 0.65 0.60 0.64 0.47 0.40 0.46 0.50 0.42 0.38 0.26 0.22 0.40 0.52 0.45 0.36 0.32 0.37 0.27 0.22 0.38 0.63 0.47 0.29 0.28 0.32 0.29 0.19 0.08 0.10 0.10 0.09 0.03 0.02 0.05 0.06 0.04 0.03 0.04 0.08 0.06 0.02
0.02 0.05 0.36 0.73 0.89 0.69 0.54 0.72 0.52 0.29 0.20 0.29 0.23 0.24 0.30 0.55 0.57 0.58 0.45 0.39 0.41 0.33 0.34 0.33 0.23 0.18 0.22 0.31 0.27 0.11 0.04 0.03 0.03 0.02 0.00 0.00 0.00 0.00 0.02 0.05 0.03 0.05 0.08 0.04
0.01 0.02 0.06 0.18 0.39 0.45 0.69 0.42 0.28 0.18 0.19 0.34 0.29 0.22 0.19 0.34 0.43 0.52 0.67 0.59 0.58 0.40 0.35 0.29 0.17 0.10 0.18 0.26 0.20 0.09 0.06 0.05 0.03 0.03 0.05 0.03 0.01 0.00 0.00 0.00 0.02 0.06 0.08 0.09
0.00 0.00 0.01 0.06 0.16 0.31 0.44 0.29 0.19 0.23 0.42 0.29 0.31 0.21 0.14 0.13 0.26 0.31 0.37 0.58 0.58 0.56 0.43 0.25 0.16 0.19 0.22 0.20 0.05 0.08 0.15 0.13 0.11 0.09 0.05 0.06 0.05 0.03 0.02 0.01 0.01 0.02 0.03 0.05
0.00 0.00 0.00 0.00 0.04 0.04 0.05 0.07 0.16 0.26 0.58 0.51 0.27 0.24 0.17 0.04 0.15 0.19 0.23 0.32 0.51 0.47 0.51 0.32 0.23 0.21 0.19 0.08 0.01 0.00 0.05 0.13 0.20 0.15 0.14 0.13 0.11 0.10 0.07 0.05 0.05 0.07 0.05 0.05
0.00 0.00 0.02 0.03 0.01 0.00 0.00 0.01 0.04 0.14 0.31 0.29 0.21 0.09 0.13 0.11 0.11 0.20 0.19 0.27 0.33 0.36 0.22 0.23 0.26 0.10 0.01 0.00 0.00 0.00 0.00 0.01 0.07 0.17 0.23 0.22 0.14 0.14 0.09 0.06 0.05 0.06 0.07 0.06
0.01 0.04 0.05 0.02 0.00 0.01 0.04 0.03 0.05 0.04 0.07 0.06 0.04 0.03 0.03 0.02 0.09 0.18 0.16 0.15 0.16 0.19 0.09 0.16 0.16 0.06 0.01 0.00 0.00 0.00 0.01 0.00 0.00 0.01 0.03 0.06 0.06 0.04 0.06 0.05 0.04 0.03 0.04 0.05
0.00 0.01 0.02 0.01 0.03 0.08 0.10 0.03 0.01 0.02 0.02 0.04 0.01 0.01 0.01 0.01 0.03 0.08 0.10 0.12 0.19 0.12 0.06 0.14 0.10 0.03 0.01 0.01 0.00 0.01 0.02 0.02 0.01 0.01 0.01 0.01 0.01 0.02 0.07 0.09 0.11 0.09 0.06 0.05
0.01 0.07 0.06 0.03 0.03 0.05 0.05 0.10 0.13 0.03 0.01 0.02 0.01 0.02 0.01 0.02 0.06 0.10 0.08 0.11 0.07 0.03 0.07 0.09 0.06 0.02 0.04 0.06 0.08 0.01 0.01 0.01 0.05 0.06 0.04 0.05 0.03 0.03 0.15 0.25 0.31 0.32 0.24 0.11
0.04 0.06 0.03 0.02 0.04 0.02 0.03 0.07 0.12 0.04 0.00 0.00 0.01 0.03 0.03 0.04 0.12 0.07 0.02 0.01 0.02 0.06 0.06 0.13 0.05 0.08 0.05 0.13 0.22 0.19 0.11 0.06 0.11 0.22 0.13 0.11 0.11 0.08 0.16 0.32 0.35 0.36 0.31 0.25
0.02 0.03 0.03 0.01 0.01 0.02 0.02 0.01 0.01 0.01 0.01 0.02 0.04 0.05 0.02 0.01 0.02 0.02 0.01 0.01 0.01 0.06 0.14 0.08 0.03 0.05 0.06 0.16 0.23 0.31 0.44 0.33 0.27 0.40 0.38 0.29 0.25 0.24 0.31 0.32 0.27 0.25 0.21 0.18
0.01 0.01 0.02 0.06 0.20 0.09 0.07 0.08 0.06 0.06 0.06 0.08 0.08 0.08 0.03 0.01 0.01 0.01 0.02 0.05 0.12 0.11 0.11 0.07 0.03 0.03 0.05 0.07 0.12 0.14 0.24 0.33 0.35 0.33 0.41 0.44 0.44 0.47 0.43 0.31 0.22 0.22 0.19 0.18
0.01 0.01 0.01 0.22 0.32 0.11 0.12 0.10 0.08 0.08 0.12 0.10 0.06 0.05 0.03 0.02 0.03 0.09 0.14 0.18 0.15 0.09 0.07 0.05 0.04 0.08 0.06 0.03 0.03 0.08 0.05 0.12 0.21 0.28 0.36 0.42 0.46 0.39 0.30 0.23 0.20 0.17 0.13 0.09